Location: Poughquag
(41.6090°N, 73.6820°W)
Time: 18:34:45
(UTC-04:00)

JY1SAT - Pass Details

Date: 15 September 2024
Orbit: 527 x 537 km, 97.5° (Epoch: 10 October)

Event Time Altitude Azimuth Distance (km) Brightness Sun altitude
Exits shadow 21:07:34 15° 25° (NNE) 1,495 ? -23.2°
Drops below altitude 10° 21:08:31 10° 15° (NNE) 1,793 ? -23.4°
Sets 21:10:55 0° 1° (N) 2,692 ? -23.8°
